Regional Weather Roundup
Issued by NWS

Home | Current Version | Previous Version | Graphics & Text | Print | Product List | Glossary On
Versions: 1 2 3 4 5 6 7 8 9 10 11 12 13 14 15 16 17 18 19 20 21 22 23 24 25 26 27 28
000
ASUS45 KCYS 010210
RWRWY

WYOMING REGIONAL WEATHER ROUNDUP
NATIONAL WEATHER SERVICE CHEYENNE WY
800 PM MDT TUE MAY 31 2016

NOTE:  "FAIR" INDICATES FEW OR NO CLOUDS BELOW 12,000 FEET
WITH NO SIGNIFICANT WEATHER AND/OR OBSTRUCTIONS TO VISIBILITY.

WYZ001-010300-
YELLOWSTONE NATIONAL PARK

CITY           SKY/WX    TMP DP  RH WIND       PRES   REMARKS
LK YELLOWSTONE   N/A     52  24  33 VRB6      30.24R
W YELLOWSTONE  NOT AVBL

$$
WYZ002>013-054>058-071-098>099-010300-
NORTHERN WYOMING

CITY           SKY/WX    TMP DP  RH WIND       PRES   REMARKS
JACKSON        NOT AVBL
CODY           FAIR      55  36  47 N13       30.15R
GREYBULL       CLOUDY    64  30  27 NW12      30.09R
WORLAND        FAIR      62  31  31 N8        30.10R
SHERIDAN       FAIR      57  40  52 N13       30.13R
BUFFALO        FAIR      54  38  54 NW15G23   30.16R
GILLETTE       FAIR      53  38  56 N16       30.12R
HULETT         MOCLDY    50  43  76 W7        30.12S
NEWCASTLE      FAIR      54  36  50 NW14G22   30.11S

$$
WYZ014>020-022>026-101>103-010300-
CENTRAL WYOMING

CITY           SKY/WX    TMP DP  RH WIND       PRES   REMARKS
BIG PINEY      FAIR      61  26  26 N14       30.14R
PINEDALE       FAIR      59  28  31 NW9       30.15R
DUBOIS         FAIR      54  32  43 SE14G22   30.15R
LANDER         FAIR      59  34  39 NE7       30.11R
RIVERTON       FAIR      60  28  29 NE12      30.12R
CASPER         FAIR      54  36  50 NE14      30.14R
DOUGLAS          N/A    N/A N/A N/A MISG      30.14R

$$
WYZ021-027>030-104>119-010300-
SOUTHERN WYOMING

CITY           SKY/WX    TMP DP  RH WIND       PRES   REMARKS
EVANSTON       FAIR      60  35  39 N12       30.16R
KEMMERER         N/A     57  32  38 W10       30.17R
FORT BRIDGER   PTCLDY    63  32  31 NW14      30.17R
ROCK SPRINGS   CLOUDY    62  33  33 E3        30.11R
DIXON          FAIR      63  36  37 N6        30.13R
RAWLINS        FAIR      56  28  34 NE12      30.14S
SARATOGA       FAIR      55  32  41 N8        30.16R
LARAMIE        FAIR      54  29  38 NE9       30.18R
CHEYENNE       MOCLDY    56  39  53 NE9       30.15R
TORRINGTON     FAIR      60  37  42 N16       30.09R
PINE BLUFFS    MOCLDY    57  41  54 NE6       30.12S

$$




USA.gov is the U.S. government's official web portal to all federal, state and local government web resources and services.